FW4382 Weather Reports


time (UTC)temp
C
wind
direction
speed
KPH
gust
KPH
rain 1hr
cm
rain 24hr
cm
rain mn
cm
humidity
%
barometer
mb
20260503201208 18 128 1.6 4.8 0.00 0.00 0.00 21 1018.3
20260503200206 17 184 1.6 9.7 0.00 0.00 0.00 21 1018.5
20260503195205 17 200 1.6 6.4 0.00 0.00 0.00 23 1018.7
20260503194705 17 138 1.6 8.0 0.00 0.00 0.00 23 1018.8
20260503194206 17 142 1.6 8.0 0.00 0.00 0.00 21 1018.9
20260503193703 17 208 1.6 6.4 0.00 0.00 0.00 22 1018.9
20260503192703 17 82 1.6 9.7 0.00 0.00 0.00 21 1019.0
20260503192203 17 185 1.6 6.4 0.00 0.00 0.00 21 1019.0
20260503191710 17 209 1.6 9.7 0.00 0.00 0.00 22 1019.1
20260503191208 16 135 1.6 12.9 0.00 0.00 0.00 23 1019.2
20260503190707 17 140 3.2 12.9 0.00 0.00 0.00 22 1019.3
20260503185707 16 324 1.6 4.8 0.00 0.00 0.00 21 1019.3
20260503185207 17 69 1.6 4.8 0.00 0.00 0.00 22 1019.5
20260503184701 17 184 1.6 4.8 0.00 0.00 0.00 21 1019.6
20260503184201 17 219 1.6 6.4 0.00 0.00 0.00 22 1019.6
20260503183659 17 169 1.6 6.4 0.00 0.00 0.00 19 1019.5
20260503183157 17 182 3.2 11.3 0.00 0.00 0.00 19 1019.6
20260503182657 17 174 3.2 11.3 0.00 0.00 0.00 22 1019.6
20260503182157 17 99 1.6 6.4 0.00 0.00 0.00 22 1019.7
20260503181656 17 161 1.6 6.4 0.00 0.00 0.00 21 1019.8
20260503181157 17 213 1.6 4.8 0.00 0.00 0.00 19 1019.9
20260503180654 17 229 1.6 9.7 0.00 0.00 0.00 21 1020.0
20260503180155 17 234 1.6 9.7 0.00 0.00 0.00 24 1020.0
20260503175654 17 69 1.6 9.7 0.00 0.00 0.00 21 1019.9
20260503175153 17 64 3.2 9.7 0.00 0.00 0.00 19 1020.0
20260503174653 17 136 3.2 11.3 0.00 0.00 0.00 19 1020.1
20260503174151 18 178 3.2 11.3 0.00 0.00 0.00 22 1020.3
20260503173651 18 169 1.6 11.3 0.00 0.00 0.00 17 1020.3
20260503173151 18 248 1.6 6.4 0.00 0.00 0.00 19 1020.5
20260503172156 18 151 0.0 3.2 0.00 0.00 0.00 18 1020.7
20260503171649 18 227 1.6 4.8 0.00 0.00 0.00 20 1021.0
20260503171143 18 227 1.6 4.8 0.00 0.00 0.00 19 1021.0
20260503170640 18 100 1.6 6.4 0.00 0.00 0.00 21 1021.1
20260503170136 17 161 1.6 9.7 0.00 0.00 0.00 19 1021.1
20260503160125 17 147 0.0 4.8 0.00 0.00 0.00 20 1021.7
20260503150621 16 150 1.6 4.8 0.00 0.00 0.00 24 1022.1
20260503140115 10 349 0.0 3.2 0.00 0.00 0.00 40 1022.3
20260503130611 6 155 1.6 6.4 0.00 0.00 0.00 54 1022.0
20260503130111 5 198 0.0 0.0 0.00 0.00 0.00 55 1022.0
20260503120109 1 277 0.0 0.0 0.00 0.00 0.00 57 1021.8
20260503110601 0 277 0.0 0.0 0.00 0.00 0.00 60 1021.5
20260503081510 1 277 0.0 0.0 0.00 0.00 0.00 60 1020.3
20260503081010 1 277 0.0 0.0 0.00 0.00 0.00 60 1020.3
20260503072504 2 277 0.0 0.0 0.00 0.00 0.00 59 1020.0
20260503072004 2 277 0.0 0.0 0.00 0.00 0.00 58 1020.1
20260503071502 2 277 0.0 0.0 0.00 0.00 0.00 58 1020.1
20260503071007 2 277 0.0 0.0 0.00 0.00 0.00 58 1020.0
20260503070504 2 277 0.0 0.0 0.00 0.00 0.00 58 1020.0
20260503054929 5 277 0.0 0.0 0.00 0.00 0.00 52 1020.2
20260503053928 5 277 0.0 0.0 0.00 0.00 0.00 51 1020.3
20260503052928 5 277 0.0 0.0 0.00 0.00 0.00 50 1020.4
20260503052436 5 277 0.0 0.0 0.00 0.00 0.00 50 1020.3
20260503051935 5 277 0.0 0.0 0.00 0.00 0.00 50 1020.4
20260503051431 5 277 0.0 0.0 0.00 0.00 0.00 50 1020.3
20260503050429 5 277 0.0 0.0 0.00 0.00 0.00 50 1020.3
20260503045429 5 276 0.0 0.0 0.00 0.00 0.00 50 1020.3
20260503044928 5 276 0.0 1.6 0.00 0.00 0.00 50 1020.3
20260503044427 5 277 0.0 1.6 0.00 0.00 0.00 50 1020.3
20260503043922 5 277 0.0 4.8 0.00 0.00 0.00 50 1020.3
20260503043422 5 277 0.0 4.8 0.00 0.00 0.00 50 1020.3
20260503042920 5 277 0.0 3.2 0.00 0.00 0.00 51 1020.4
20260503042420 5 286 0.0 1.6 0.00 0.00 0.00 51 1020.2
20260503041925 5 286 0.0 1.6 0.00 0.00 0.00 52 1020.1
20260503041418 5 286 0.0 1.6 0.00 0.00 0.00 53 1020.1
20260503040916 5 286 0.0 1.6 0.00 0.00 0.00 53 1019.9
20260503040415 5 286 0.0 1.6 0.00 0.00 0.00 54 1019.9
20260503035914 5 286 0.0 1.6 0.00 0.00 0.00 55 1019.9
20260503035411 5 286 0.0 1.6 0.00 0.00 0.00 57 1019.9
20260503034909 5 286 0.0 1.6 0.00 0.00 0.00 57 1020.0
20260503034407 5 286 0.0 1.6 0.00 0.00 0.00 57 1019.8
20260503033905 5 286 0.0 0.0 0.00 0.00 0.00 57 1020.0
20260503033401 5 286 0.0 0.0 0.00 0.00 0.00 57 1019.8
20260503032901 5 286 0.0 0.0 0.00 0.00 0.00 56 1019.9
20260503032401 5 286 0.0 0.0 0.00 0.00 0.00 56 1019.8
20260503031408 6 286 0.0 0.0 0.00 0.00 0.00 56 1019.8
20260503030903 6 286 0.0 0.0 0.00 0.00 0.00 56 1019.8
20260503030401 6 286 0.0 0.0 0.00 0.00 0.00 56 1019.8
20260503025901 6 286 0.0 0.0 0.00 0.00 0.00 56 1019.7
20260503025359 6 286 0.0 0.0 0.00 0.00 0.00 55 1019.6
20260503024859 6 286 0.0 0.0 0.00 0.00 0.00 55 1019.6
20260503024357 6 286 0.0 0.0 0.00 0.00 0.00 54 1019.5
20260503023856 6 286 0.0 0.0 0.00 0.00 0.00 53 1019.4
20260503022851 7 286 0.0 1.6 0.00 0.00 0.00 53 1019.2
20260503022349 7 286 0.0 1.6 0.00 0.00 0.00 53 1019.2
20260503021349 7 286 0.0 0.0 0.00 0.00 0.00 51 1019.1
20260503020847 7 286 0.0 0.0 0.00 0.00 0.00 51 1019.0
20260503020346 8 286 0.0 0.0 0.00 0.00 0.00 50 1019.0
20260503015843 8 286 0.0 0.0 0.00 0.00 0.00 49 1019.0
20260503014839 8 286 0.0 0.0 0.00 0.00 0.00 47 1018.9
20260503014344 8 286 0.0 0.0 0.00 0.00 0.00 47 1018.9
20260503013836 9 286 0.0 0.0 0.00 0.00 0.00 46 1018.7
20260503013334 9 286 0.0 0.0 0.00 0.00 0.00 45 1018.8
20260503012831 9 286 0.0 0.0 0.00 0.00 0.00 45 1018.6
20260503011828 10 286 0.0 0.0 0.00 0.00 0.00 44 1018.6
20260503011329 10 286 0.0 3.2 0.00 0.00 0.00 43 1018.5
20260503010828 10 286 0.0 3.2 0.00 0.00 0.00 42 1018.4
20260503010328 10 286 0.0 1.6 0.00 0.00 0.00 43 1018.4
20260503005828 10 286 0.0 1.6 0.00 0.00 0.00 42 1018.4
20260503005329 10 286 0.0 0.0 0.00 0.00 0.00 42 1018.3
20260503004329 10 286 0.0 1.6 0.00 0.00 0.00 41 1018.2
20260503003829 10 286 0.0 1.6 0.00 0.00 0.00 40 1018.2
20260503003335 10 279 0.0 4.8 0.00 0.00 0.00 40 1018.2
20260503002835 10 279 0.0 4.8 0.00 0.00 0.00 40 1018.1
20260503002335 10 283 0.0 3.2 0.00 0.00 0.00 39 1018.1
20260503001835 11 283 0.0 3.2 0.00 0.00 0.00 39 1018.1
20260503001335 11 283 0.0 3.2 0.00 0.00 0.00 39 1018.0
20260503000330 11 286 1.6 8.0 0.00 0.00 0.00 38 1018.0
20260502235828 11 258 1.6 8.0 0.00 0.00 0.00 37 1017.9
20260502235329 11 290 0.0 6.4 0.00 0.00 0.00 38 1017.8
20260502234829 11 301 1.6 6.4 0.00 0.00 0.00 38 1017.7
20260502233829 11 324 1.6 8.0 0.00 0.00 0.00 38 1017.5
20260502233323 11 242 1.6 4.8 0.00 0.00 0.00 37 1017.5
20260502232817 11 262 1.6 6.4 0.00 0.00 0.00 38 1017.6
20260502231805 11 299 1.6 4.8 0.00 0.00 0.00 37 1017.5
20260502231305 12 271 1.6 4.8 0.00 0.00 0.00 37 1017.6
20260502230803 12 265 1.6 6.4 0.00 0.00 0.00 37 1017.7
20260502230303 11 322 1.6 6.4 0.00 0.00 0.00 37 1017.7
20260502225802 12 271 1.6 4.8 0.00 0.00 0.00 38 1017.8
20260502224802 12 279 1.6 8.0 0.00 0.00 0.00 38 1017.7
20260502224301 12 275 1.6 8.0 0.00 0.00 0.00 38 1017.7
20260502223800 12 231 1.6 8.0 0.00 0.00 0.00 38 1017.7
20260502223301 12 346 1.6 4.8 0.00 0.00 0.00 38 1017.8
20260502222802 12 259 1.6 6.4 0.00 0.00 0.00 38 1017.8
20260502222300 12 299 1.6 6.4 0.00 0.00 0.00 38 1017.9
20260502221800 12 288 1.6 8.0 0.00 0.00 0.00 37 1018.0
20260502221301 12 300 1.6 8.0 0.00 0.00 0.00 37 1017.9
20260502220806 12 279 1.6 6.4 0.00 0.00 0.00 36 1017.9
20260502220301 12 275 1.6 6.4 0.00 0.00 0.00 37 1017.8
20260502215801 12 273 1.6 8.0 0.00 0.00 0.00 38 1017.8
20260502215301 12 308 1.6 8.0 0.00 0.00 0.00 37 1017.7
20260502214758 12 318 1.6 11.3 0.00 0.00 0.00 37 1017.6
20260502214253 12 263 3.2 11.3 0.00 0.00 0.00 36 1017.6
20260502213746 12 270 3.2 11.3 0.00 0.00 0.00 36 1017.7
20260502213245 12 241 1.6 11.3 0.00 0.00 0.00 36 1017.6
20260502212744 12 275 1.6 4.8 0.00 0.00 0.00 37 1017.5
20260502212244 12 309 1.6 6.4 0.00 0.00 0.00 37 1017.5
20260502211745 12 0 3.2 9.7 0.00 0.00 0.00 37 1017.6
20260502210740 13 281 1.6 8.0 0.00 0.00 0.00 36 1017.5
20260502205738 13 286 1.6 11.3 0.00 0.00 0.00 35 1017.5
20260502205239 13 323 1.6 11.3 0.00 0.00 0.00 35 1017.5
20260502204739 13 240 1.6 6.4 0.00 0.00 0.00 35 1017.4
20260502204239 13 255 1.6 6.4 0.00 0.00 0.00 35 1017.5
20260502203743 13 355 1.6 4.8 0.00 0.00 0.00 37 1017.7
20260502203237 12 298 1.6 8.0 0.00 0.00 0.00 37 1017.7
20260502202735 12 270 1.6 8.0 0.00 0.00 0.00 37 1017.7
20260502202235 12 313 1.6 4.8 0.00 0.00 0.00 37 1017.8